Regional Weather Roundup
Issued by NWS Northern Indiana

Home | Current Version | Previous Version | Graphics & Text | Print | Product List | Glossary On
Versions: 1 2 3 4 5 6 7 8 9 10 11 12 13 14 15 16 17 18 19 20 21 22 23 24 25 26 27 28 29 30 31 32 33 34 35 36 37 38 39 40 41 42 43 44 45 46 47 48 49 50
000
ASUS43 KIWX 211900
RWRIWX

KIWX WEATHER ROUNDUP
NATIONAL WEATHER SERVICE NORTHERN INDIANA
300 PM EDT SAT APR 21 2018

NOTE: "FAIR" INDICATES FEW OR NO CLOUDS BELOW 12,000 FEET WITH NO
SIGNIFICANT WEATHER AND/OR OBSTRUCTIONS TO VISIBILITY.

* THESE STATIONS ARE NOT UNDER NWS QUALITY CONTROL. THEY ALSO MAY NOT
  REPORT WEATHER SUCH AS PRECIPITATION OR FOG.

INZ001>027-212000-
NORTHERN INDIANA

CITY           SKY/WX    TMP DP  RH WIND       PRES   REMARKS
GARY*          CLOUDY    50  28  43 CALM      30.43S
KNOX*          CLOUDY    54  28  37 E3        30.41F
SOUTH BEND     FAIR      54  26  34 W6        30.43F
ELKHART*       SUNNY     57  28  33 S5        30.41F
GOSHEN         PTSUNNY   55  27  34 CALM      30.41F
MONTICELLO*    CLOUDY    55  24  30 SE5       30.40S
ROCHESTER*     FAIR      55  27  33 SE6       30.41F
WARSAW*        FAIR      54  27  35 CALM      30.41F
FORT WAYNE     CLOUDY    54  26  34 E9        30.42F

$$
INZ028>050-212000-
CENTRAL INDIANA

CITY           SKY/WX    TMP DP  RH WIND       PRES   REMARKS
LAFAYETTE      PTSUNNY   57  29  34 E8        30.38F
KOKOMO*        PTSUNNY   57  23  26 E12       30.39F
MUNCIE*        FAIR      58  21  24 E12       30.38F
INDIANAPOLIS   PTSUNNY   58  24  27 E13       30.36F

$$
MIZ043>046-050>051-056>058-064>065-071>073-077>080-212000-
SOUTHWEST LOWER MICHIGAN

CITY           SKY/WX    TMP DP  RH WIND       PRES   REMARKS
BATTLE CREEK   FAIR      55  28  35 SW7       30.41F
BENTON HARBOR  FAIR      54  23  30 W7        30.42F
COLDWATER*     FAIR      55  26  32 SE6       30.41F
HILLSDALE*     FAIR      52  23  32 CALM      30.41F
HOLLAND        FAIR      54  24  31 NW6       30.42F
GRAND RAPIDS   CLOUDY    57  27  31 W5        30.41F
KALAMAZOO      FAIR      57  28  33 S7        30.41F
STURGIS*       FAIR      57  25  28 CALM      30.40S
THREE RIVERS*  FAIR      58  26  29 SE5       30.40F

$$
OHZ001>008-015>018-024>025-212000-
NORTHWEST OHIO

CITY           SKY/WX    TMP DP  RH WIND       PRES   REMARKS
WAUSEON*       FAIR      54  25  32 S6        30.43F
DEFIANCE       FAIR      55  23  28 N5        30.42F
FINDLAY        FAIR      56  21  25 E8        30.41F
TOLEDO EXPRESS FAIR      55  24  30 CALM      30.43F
TOLEDO METCALF FAIR      52  20  28 E5        30.45F
LIMA           FAIR      53  24  32 NE9       30.40F

$$
AND FOR LAKE MICHIGAN COASTAL AND OPEN LAKE BUOY OBSERVATIONS

STATION/POSITION TEMP    WIND        PRES    VSBY  WAVE
                 AIR SEA DIR/SP/G                  HT/PER
                 (F)     (DEG/KT/KT) (MB)    (MI)  (FT/S)
CALUMET HARBOR    40      70/  3/  5 1029.7S
MICHIGAN CITY     41      30/  9/  9   N/A
BURNS HARBOR      42      60/  6/  9 1030.5F
SAINT JOSEPH      52     220/  2/  3 1031.5

$$
&&




USA.gov is the U.S. government's official web portal to all federal, state and local government web resources and services.